Weather History for Custer, SD

Change the Weather History Date:

Saturday, February 16, 2013

  Actual Average Record
Temperature  
Mean Temperature 33 °F 26 °F  
Max Temperature 44 °F 36 °F 58 °F (1951)
Min Temperature 22 °F 15 °F -20 °F (1993)
Degree Days  
Heating Degree Days 32 39  
Month to date heating degree days 613 643  
Since 1 July heating degree days 5022 5378  
Cooling Degree Days 0 0  
Month to date cooling degree days 0 0  
Year to date cooling degree days 0 0  
Moisture  
Dew Point 20 °F    
Average Humidity 54    
Maximum Humidity 69    
Minimum Humidity 39    
Precipitation  
Precipitation 0.00 in 0.02 in 0.52 in (1991)
Month to date precipitation 0.05 0.31  
Year to date precipitation 0.85 0.64  
Sea Level Pressure  
Sea Level Pressure 30.00 in    
Wind  
Wind Speed 12 mph (West)    
Max Wind Speed 25 mph    
Max Gust Speed 37 mph    
Visibility 10 miles    
Events      
T = Trace of Precipitation, MM = Missing Value Source: NWS Daily Summary

Daily Weather History Graph

Daily Weather History Graph

Search for Another Location

Airport:

Trip Planner

Search our weather history database for the weather conditions in past years. The results will help you decide how hot, cold, wet, or windy it might be!

Date:

Astronomy

Feb. 16, 2013 Rise Set
Actual Time 6:51 AM MST 5:26 PM MST
Civil Twilight 6:21 AM MST 5:55 PM MST
Nautical Twilight 5:48 AM MST 6:29 PM MST
Astronomical Twilight 5:15 AM MST 7:02 PM MST
Moon 9:51 AM MST (2/16) No Moon Set
Length of Visible Light 11h 33m
Length of Day
10h 35m
Waxing Crescent, 40% of the Moon is Illuminated
Feb 16
Waxing Crescent
Feb 17
First Quarter
Feb 25
Full
Mar 4
Last Quarter
Mar 11
New

Hourly Weather History & Observations

Time (MST) Temp. Windchill Dew Point Humidity Pressure Visibility Wind Dir Wind Speed Gust Speed Precip Events Conditions
12:53 AM 24.1 °F 11.5 °F 15.1 °F 69% 30.12 in 10.0 mi West 15.0 mph - N/A   Clear
1:53 AM 25.0 °F 12.6 °F 16.0 °F 69% 30.10 in 10.0 mi West 15.0 mph 21.9 mph N/A   Partly Cloudy
2:53 AM 30.9 °F 21.2 °F 19.9 °F 64% 30.05 in 10.0 mi WNW 12.7 mph - N/A   Partly Cloudy
3:53 AM 30.9 °F 21.2 °F 19.0 °F 61% 30.06 in 10.0 mi West 12.7 mph - N/A   Clear
4:53 AM 33.1 °F 23.9 °F 19.9 °F 59% 30.06 in 10.0 mi WNW 12.7 mph - N/A   Clear
5:53 AM 30.9 °F 22.2 °F 19.9 °F 64% 30.07 in 10.0 mi WSW 10.4 mph 26.5 mph N/A   Clear
6:53 AM 30.0 °F 20.0 °F 19.9 °F 66% 30.10 in 10.0 mi West 12.7 mph - N/A   Scattered Clouds
7:53 AM 33.1 °F 24.4 °F 19.9 °F 59% 30.10 in 10.0 mi WNW 11.5 mph 19.6 mph N/A   Overcast
8:53 AM 36.0 °F 25.6 °F 21.0 °F 55% 30.07 in 10.0 mi WNW 18.4 mph 28.8 mph N/A   Mostly Cloudy
9:53 AM 37.9 °F 28.9 °F 21.0 °F 51% 30.06 in 10.0 mi WNW 16.1 mph 29.9 mph N/A   Clear
10:53 AM 41.0 °F 33.5 °F 21.0 °F 45% 30.04 in 10.0 mi WNW 13.8 mph 26.5 mph N/A   Clear
11:53 AM 41.0 °F 32.2 °F 21.0 °F 45% 30.04 in 10.0 mi WNW 18.4 mph 27.6 mph N/A   Clear
12:53 PM 42.1 °F 33.6 °F 21.0 °F 43% 30.01 in 10.0 mi WNW 18.4 mph 28.8 mph N/A   Clear
1:53 PM 42.1 °F 32.3 °F 21.0 °F 43% 29.97 in 10.0 mi WNW 24.2 mph 36.8 mph N/A   Clear
2:53 PM 43.0 °F 34.8 °F 21.0 °F 42% 29.94 in 10.0 mi West 18.4 mph 27.6 mph N/A   Clear
3:53 PM 42.1 °F 35.7 °F 19.9 °F 41% 29.94 in 10.0 mi West 11.5 mph 20.7 mph N/A   Clear
4:53 PM 39.9 °F 34.5 °F 19.9 °F 45% 29.93 in 10.0 mi West 8.1 mph 21.9 mph N/A   Clear
5:53 PM 34.0 °F 29.8 °F 21.0 °F 59% 29.96 in 10.0 mi West 4.6 mph - N/A   Clear
6:53 PM 32.0 °F - 21.0 °F 64% 29.97 in 10.0 mi Calm Calm - N/A   Clear
7:53 PM 30.0 °F 25.2 °F 19.9 °F 66% 29.94 in 10.0 mi North 4.6 mph - N/A   Clear
8:53 PM 30.0 °F 25.2 °F 19.0 °F 64% 29.91 in 10.0 mi SW 4.6 mph - N/A   Clear
9:53 PM 30.0 °F 22.4 °F 19.9 °F 66% 29.88 in 10.0 mi West 8.1 mph - N/A   Clear
10:53 PM 28.9 °F 20.4 °F 19.9 °F 69% 29.84 in 10.0 mi West 9.2 mph - N/A   Clear
11:53 PM 30.0 °F 21.7 °F 19.9 °F 66% 29.81 in 10.0 mi West 9.2 mph - N/A   Clear